Location: ???? ??????? ????
(31.2176°N, 31.6797°E)
Time: 18:28:57
(UTC+00:00)

H-2A R/B - Pass Details

Date: 29 October 2020
Orbit: 733 x 837 km, 98.2° (Epoch: 30 November)

Event Time Altitude Azimuth Distance (km) Brightness Sun altitude
Exits shadow 16:15:51 16° 119° (ESE) 2,037 3.7 -15.3°
Maximum altitude 16:19:09 29° 70° (ENE) 1,497 2.9 -16.0°
Drops below altitude 10° 16:23:44 10° 13° (NNE) 2,453 4.4 -17.0°
Sets 16:26:23 0° 2° (N) 3,391 5.3 -17.5°
